OpenBCM V1.13 (Linux)

Packet Radio Mailbox

DB0FHN

[JN59NK Nuernberg]

 Login: GUEST





  
I6KZR  > KEPLER   03.03.03 23:25l 1484 Lines 39767 Bytes #999 (0) @ WW
BID : 27087_IK6WID
Read: DB0FHN GUEST
Subj: Old Istantrak Keplerians #062
Path: DB0FHN<DB0ZWI<DB0CHZ<DB0ERF<DB0GR<DB0BRB<DB0SAW<DB0OCA<DB0FC<DB0TUD<
      DB0GRL<SR6BBA<OK0PCC<OK0PAD<OK0PPL<RZ6HXA<SP7MGD<ON0BEL<IK6PYS<IK6PYS<
      I6ZLO<IK6WID
Sent: 030303/1959Z @:IK6WID.#AP.IMAR.ITA.EU #:27087 [MONTE URANO]  FBB7.00i
From: I6KZR@IK6WID.#AP.IMAR.ITA.EU
To  : KEPLER@WW


Inviato da: I6KZR@GB7YKS.#19.GBR.EU        

Satellite: OSCAR 7
Catalog number: 07530
Epoch time:      103062.14151959
Element set:     153 
Inclination:      101.7590 deg
RA of node:       109.8095 deg
Eccentricity:    0.0012233
Arg of perigee:    54.3547 deg
Mean anomaly:     305.8660 deg
Mean motion:   12.53564661 rev/day
Decay rate:   -2.9000E-007 rev/day^2
Epoch rev:           29476
Checksum:              293

Satellite: GOES 2
Catalog number: 10061
Epoch time:      103051.70332233
Element set:     94 
Inclination:       14.1349 deg
RA of node:        13.4071 deg
Eccentricity:    0.0012974
Arg of perigee:   200.0160 deg
Mean anomaly:     159.9586 deg
Mean motion:    0.99400653 rev/day
Decay rate:   -2.7900E-006 rev/day^2
Epoch rev:            3885
Checksum:              261

Satellite: GOES 3
Catalog number: 10953
Epoch time:      103060.90265955
Element set:     939 
Inclination:       13.4156 deg
RA of node:        17.1454 deg
Eccentricity:    0.0005841
Arg of perigee:   343.6642 deg
Mean anomaly:      16.3376 deg
Mean motion:    1.00279493 rev/day
Decay rate:   -1.1099E-006 rev/day^2
Epoch rev:            4361
Checksum:              291

Satellite: GOES 6
Catalog number: 14050
Epoch time:      103062.00841580
Element set:     427 
Inclination:       10.4180 deg
RA of node:        35.4806 deg
Eccentricity:    0.0004593
Arg of perigee:   345.1253 deg
Mean anomaly:      14.9284 deg
Mean motion:    1.00306627 rev/day
Decay rate:    2.0999E-007 rev/day^2
Epoch rev:           13076
Checksum:              265

Satellite: OSCAR 10
Catalog number: 14129
Epoch time:      103053.29347507
Element set:     920 
Inclination:       25.9661 deg
RA of node:       163.6642 deg
Eccentricity:    0.6025305
Arg of perigee:   329.8586 deg
Mean anomaly:       6.1874 deg
Mean motion:    2.05867335 rev/day
Decay rate:   -1.3500E-006 rev/day^2
Epoch rev:           12014
Checksum:              290

Satellite: OSCAR 11 (UoSA
Catalog number: 14781
Epoch time:      103062.13565443
Element set:     85 
Inclination:       98.1192 deg
RA of node:        36.1562 deg
Eccentricity:    0.0009515
Arg of perigee:   163.2314 deg
Mean anomaly:     196.9215 deg
Mean motion:   14.78025286 rev/day
Decay rate:    9.0100E-006 rev/day^2
Epoch rev:            1809
Checksum:              399

Satellite: NOAA 10
Catalog number: 16969
Epoch time:      103061.81823381
Element set:     682 
Inclination:       98.7307 deg
RA of node:        55.9034 deg
Eccentricity:    0.0013442
Arg of perigee:    53.5438 deg
Mean anomaly:     306.6979 deg
Mean motion:   14.27068245 rev/day
Decay rate:    1.0500E-006 rev/day^2
Epoch rev:           85565
Checksum:              322

Satellite: GOES 7
Catalog number: 17561
Epoch time:      103061.27234200
Element set:     873 
Inclination:        7.6235 deg
RA of node:        55.4756 deg
Eccentricity:    0.0005432
Arg of perigee:   264.7225 deg
Mean anomaly:     117.9573 deg
Mean motion:    1.00256038 rev/day
Decay rate:    3.0999E-007 rev/day^2
Epoch rev:            4186
Checksum:              295

Satellite: COSMOS 1861
Catalog number: 18129
Epoch time:      103061.75625570
Element set:     208 
Inclination:       82.9261 deg
RA of node:       137.5505 deg
Eccentricity:    0.0011018
Arg of perigee:   185.7644 deg
Mean anomaly:     174.3386 deg
Mean motion:   13.72702168 rev/day
Decay rate:    6.2999E-007 rev/day^2
Epoch rev:           78618
Checksum:              343

Satellite: EUTELSAT 1-F4 
Catalog number: 18351
Epoch time:      103059.07635020
Element set:     44 
Inclination:        7.2160 deg
RA of node:        58.6101 deg
Eccentricity:    0.0006917
Arg of perigee:   200.9393 deg
Mean anomaly:     159.1775 deg
Mean motion:    0.98687115 rev/day
Decay rate:    1.3000E-007 rev/day^2
Epoch rev:            4277
Checksum:              282

Satellite: NOAA 11
Catalog number: 19531
Epoch time:      103061.81942321
Element set:     519 
Inclination:       98.8997 deg
RA of node:       143.1604 deg
Eccentricity:    0.0011852
Arg of perigee:   164.0539 deg
Mean anomaly:     196.1008 deg
Mean motion:   14.14543011 rev/day
Decay rate:    1.5099E-006 rev/day^2
Epoch rev:           74453
Checksum:              300

Satellite: ASTRA 1A
Catalog number: 19688
Epoch time:      103061.76933815
Element set:     583 
Inclination:        1.4247 deg
RA of node:        94.7158 deg
Eccentricity:    0.0003492
Arg of perigee:   232.2589 deg
Mean anomaly:     115.2778 deg
Mean motion:    1.00269923 rev/day
Decay rate:    1.8999E-007 rev/day^2
Epoch rev:            3231
Checksum:              326

Satellite: OSCAR 14 (UOSA
Catalog number: 20437
Epoch time:      103061.17368320
Element set:     176 
Inclination:       98.2687 deg
RA of node:       104.2311 deg
Eccentricity:    0.0010800
Arg of perigee:   162.6533 deg
Mean anomaly:     197.5013 deg
Mean motion:   14.31240603 rev/day
Decay rate:    3.7000E-007 rev/day^2
Epoch rev:           68415
Checksum:              264

Satellite: OSCAR 15 (UOSA
Catalog number: 20438
Epoch time:      103059.59261152
Element set:     779 
Inclination:       98.2461 deg
RA of node:        91.8033 deg
Eccentricity:    0.0009554
Arg of perigee:   178.7772 deg
Mean anomaly:     181.3431 deg
Mean motion:   14.30200224 rev/day
Decay rate:    4.1999E-007 rev/day^2
Epoch rev:           68359
Checksum:              438

Satellite: OSCAR 16 (PACS
Catalog number: 20439
Epoch time:      103062.23515547
Element set:     859 
Inclination:       98.3149 deg
RA of node:       117.0003 deg
Eccentricity:    0.0011016
Arg of perigee:   166.4736 deg
Mean anomaly:     193.6749 deg
Mean motion:   14.31476064 rev/day
Decay rate:    1.1299E-006 rev/day^2
Epoch rev:           68434
Checksum:              314

Satellite: OSCAR 17 (DOVE
Catalog number: 20440
Epoch time:      103059.21656542
Element set:     730 
Inclination:       98.3365 deg
RA of node:       118.0242 deg
Eccentricity:    0.0010910
Arg of perigee:   174.2993 deg
Mean anomaly:     185.8315 deg
Mean motion:   14.31753389 rev/day
Decay rate:    7.4000E-007 rev/day^2
Epoch rev:           68398
Checksum:              309

Satellite: OSCAR 18 (WEBE
Catalog number: 20441
Epoch time:      103061.86575729
Element set:     24 
Inclination:       98.3315 deg
RA of node:       119.7711 deg
Eccentricity:    0.0011756
Arg of perigee:   167.4238 deg
Mean anomaly:     192.7241 deg
Mean motion:   14.31557237 rev/day
Decay rate:    7.5999E-007 rev/day^2
Epoch rev:           68434
Checksum:              335

Satellite: OSCAR 19 (LUSA
Catalog number: 20442
Epoch time:      103061.70300400
Element set:     975 
Inclination:       98.3448 deg
RA of node:       122.6608 deg
Eccentricity:    0.0011806
Arg of perigee:   167.2359 deg
Mean anomaly:     192.9123 deg
Mean motion:   14.31720644 rev/day
Decay rate:    8.1000E-007 rev/day^2
Epoch rev:           68437
Checksum:              288

Satellite: JAS 1B (FUJI 2
Catalog number: 20480
Epoch time:      103061.47314087
Element set:     466 
Inclination:       99.0473 deg
RA of node:        21.9777 deg
Eccentricity:    0.0540464
Arg of perigee:   336.9409 deg
Mean anomaly:      20.8231 deg
Mean motion:   12.83331047 rev/day
Decay rate:    2.0999E-007 rev/day^2
Epoch rev:           61204
Checksum:              304

Satellite: HST
Catalog number: 20580
Epoch time:      103062.15797260
Element set:     345 
Inclination:       28.4686 deg
RA of node:       316.2922 deg
Eccentricity:    0.0003914
Arg of perigee:    45.8951 deg
Mean anomaly:      84.7844 deg
Mean motion:   14.97869270 rev/day
Decay rate:    2.7289E-005 rev/day^2
Epoch rev:           50452
Checksum:              329

Satellite: EUTELSAT 2-F1
Catalog number: 20777
Epoch time:      103058.86735716
Element set:     40 
Inclination:        3.5291 deg
RA of node:        84.4541 deg
Eccentricity:    0.0003426
Arg of perigee:   323.2557 deg
Mean anomaly:     137.7336 deg
Mean motion:    1.00272316 rev/day
Decay rate:   -1.1600E-006 rev/day^2
Epoch rev:            2619
Checksum:              273

Satellite: FENGYUN 1B
Catalog number: 20788
Epoch time:      103061.87883772
Element set:     894 
Inclination:       99.0266 deg
RA of node:        43.9392 deg
Eccentricity:    0.0016107
Arg of perigee:   193.3607 deg
Mean anomaly:     166.7134 deg
Mean motion:   14.02141025 rev/day
Decay rate:    2.6200E-006 rev/day^2
Epoch rev:           63926
Checksum:              311

Satellite: EUTELSAT 2-F2
Catalog number: 21056
Epoch time:      103058.89572918
Element set:     621 
Inclination:        2.7523 deg
RA of node:        87.8292 deg
Eccentricity:    0.0003750
Arg of perigee:   291.4980 deg
Mean anomaly:     148.8290 deg
Mean motion:    1.00271203 rev/day
Decay rate:    1.0200E-006 rev/day^2
Epoch rev:            3197
Checksum:              282

Satellite: INFORMATOR 1
Catalog number: 21087
Epoch time:      103060.18336623
Element set:     602 
Inclination:       82.9428 deg
RA of node:       309.5473 deg
Eccentricity:    0.0033747
Arg of perigee:   219.5394 deg
Mean anomaly:     140.3298 deg
Mean motion:   13.74927586 rev/day
Decay rate:    6.1999E-007 rev/day^2
Epoch rev:           60634
Checksum:              336

